TimeCDT,TemperatureF,Dew PointF,Humidity,Sea Level PressureIn,VisibilityMPH,Wind Direction,Wind SpeedMPH,Gust SpeedMPH,PrecipitationIn,Events,Conditions,WindDirDegrees,DateUTC
12:15 AM,60.8,57.2,88,30.01,10.0,East,3.5,-,N/A,,Unknown,80,2012-10-10 05:15:00
12:35 AM,60.8,57.2,88,30.01,10.0,Calm,Calm,-,N/A,,Unknown,0,2012-10-10 05:35:00
12:55 AM,60.8,57.2,88,30.02,10.0,Calm,Calm,-,N/A,,Unknown,0,2012-10-10 05:55:00
1:15 AM,60.8,57.2,88,30.02,10.0,ENE,3.5,-,N/A,,Unknown,60,2012-10-10 06:15:00
1:35 AM,60.8,57.2,88,30.03,7.0,NE,4.6,-,N/A,,Unknown,50,2012-10-10 06:35:00
1:55 AM,59.0,57.2,94,30.04,7.0,ENE,4.6,-,N/A,,Unknown,60,2012-10-10 06:55:00
2:15 AM,59.0,55.4,88,30.04,7.0,ENE,5.8,-,N/A,,Unknown,60,2012-10-10 07:15:00
2:35 AM,59.0,55.4,88,30.04,7.0,ENE,4.6,-,N/A,,Unknown,60,2012-10-10 07:35:00
2:55 AM,59.0,55.4,88,30.05,7.0,ENE,4.6,-,N/A,,Unknown,70,2012-10-10 07:55:00
3:15 AM,59.0,55.4,88,30.05,7.0,NE,3.5,-,N/A,,Unknown,50,2012-10-10 08:15:00
3:35 AM,59.0,55.4,88,30.06,7.0,ENE,4.6,-,N/A,,Unknown,60,2012-10-10 08:35:00
3:55 AM,59.0,55.4,88,30.07,7.0,NE,5.8,-,N/A,,Unknown,50,2012-10-10 08:55:00
4:15 AM,59.0,55.4,88,30.07,7.0,NE,8.1,-,N/A,,Unknown,50,2012-10-10 09:15:00
4:35 AM,60.8,57.2,88,30.08,7.0,NE,9.2,-,N/A,,Unknown,40,2012-10-10 09:35:00
4:55 AM,59.0,55.4,88,30.09,7.0,NE,11.5,-,N/A,,Unknown,40,2012-10-10 09:55:00
5:15 AM,59.0,55.4,88,30.09,7.0,NE,11.5,-,N/A,,Unknown,40,2012-10-10 10:15:00
5:35 AM,59.0,55.4,88,30.10,10.0,NE,10.4,-,N/A,,Unknown,40,2012-10-10 10:35:00
5:55 AM,59.0,55.4,88,30.12,10.0,NE,9.2,18.4,N/A,,Unknown,40,2012-10-10 10:55:00
6:15 AM,59.0,53.6,82,30.13,10.0,NE,11.5,16.1,N/A,,Unknown,50,2012-10-10 11:15:00
6:35 AM,59.0,53.6,82,30.14,10.0,NE,10.4,18.4,N/A,,Unknown,50,2012-10-10 11:35:00
6:55 AM,59.0,53.6,82,30.15,10.0,ENE,13.8,19.6,N/A,,Unknown,60,2012-10-10 11:55:00
7:15 AM,59.0,53.6,82,30.15,10.0,ENE,12.7,20.7,N/A,,Unknown,60,2012-10-10 12:15:00
7:35 AM,59.0,51.8,77,30.15,10.0,NE,12.7,17.3,N/A,,Unknown,50,2012-10-10 12:35:00
7:55 AM,57.2,51.8,82,30.15,10.0,ENE,13.8,17.3,N/A,,Unknown,60,2012-10-10 12:55:00
8:15 AM,59.0,51.8,77,30.17,10.0,ENE,8.1,-,N/A,,Unknown,60,2012-10-10 13:15:00
8:35 AM,59.0,51.8,77,30.18,10.0,ENE,10.4,-,N/A,,Unknown,70,2012-10-10 13:35:00
8:55 AM,59.0,50.0,72,30.19,10.0,ENE,11.5,16.1,N/A,,Unknown,60,2012-10-10 13:55:00
9:15 AM,59.0,50.0,72,30.20,10.0,ENE,8.1,18.4,N/A,,Unknown,70,2012-10-10 14:15:00
9:35 AM,59.0,50.0,72,30.20,10.0,ENE,9.2,16.1,N/A,,Unknown,70,2012-10-10 14:35:00
9:55 AM,59.0,50.0,72,30.21,10.0,ENE,11.5,-,N/A,,Unknown,70,2012-10-10 14:55:00
10:15 AM,59.0,50.0,72,30.21,10.0,East,10.4,-,N/A,,Unknown,90,2012-10-10 15:15:00
10:35 AM,60.8,50.0,68,30.22,10.0,ENE,12.7,18.4,N/A,,Unknown,70,2012-10-10 15:35:00
10:55 AM,60.8,50.0,68,30.22,10.0,ENE,9.2,-,N/A,,Unknown,70,2012-10-10 15:55:00
11:15 AM,60.8,50.0,68,30.22,10.0,ENE,10.4,-,N/A,,Unknown,70,2012-10-10 16:15:00
11:35 AM,60.8,50.0,68,30.22,10.0,ENE,11.5,17.3,N/A,,Unknown,70,2012-10-10 16:35:00
11:55 AM,60.8,50.0,68,30.22,10.0,East,9.2,-,N/A,,Unknown,80,2012-10-10 16:55:00
12:15 PM,60.8,50.0,68,30.22,10.0,East,9.2,-,N/A,,Unknown,80,2012-10-10 17:15:00
12:35 PM,62.6,50.0,63,30.21,10.0,ENE,9.2,-,N/A,,Unknown,70,2012-10-10 17:35:00
12:55 PM,62.6,48.2,59,30.20,10.0,East,11.5,-,N/A,,Unknown,80,2012-10-10 17:55:00
1:15 PM,62.6,50.0,63,30.19,10.0,East,9.2,-,N/A,,Unknown,80,2012-10-10 18:15:00
1:35 PM,62.6,50.0,63,30.19,10.0,ENE,9.2,-,N/A,,Unknown,70,2012-10-10 18:35:00
1:55 PM,62.6,50.0,63,30.17,10.0,East,8.1,-,N/A,,Unknown,80,2012-10-10 18:55:00
2:15 PM,64.4,50.0,59,30.17,10.0,ENE,6.9,-,N/A,,Unknown,60,2012-10-10 19:15:00
2:35 PM,64.4,50.0,59,30.16,10.0,East,5.8,-,N/A,,Unknown,100,2012-10-10 19:35:00
2:55 PM,64.4,50.0,59,30.15,10.0,East,5.8,-,N/A,,Unknown,80,2012-10-10 19:55:00
3:15 PM,64.4,50.0,59,30.15,10.0,East,4.6,-,N/A,,Unknown,90,2012-10-10 20:15:00
3:35 PM,64.4,50.0,59,30.15,10.0,East,4.6,-,N/A,,Unknown,90,2012-10-10 20:35:00
3:55 PM,64.4,51.8,64,30.15,10.0,ESE,4.6,-,N/A,,Unknown,110,2012-10-10 20:55:00
4:15 PM,64.4,51.8,64,30.15,10.0,East,10.4,-,N/A,,Unknown,100,2012-10-10 21:15:00
4:35 PM,62.6,53.6,72,30.15,10.0,East,6.9,-,N/A,,Unknown,80,2012-10-10 21:35:00
4:55 PM,62.6,53.6,72,30.14,10.0,East,5.8,-,N/A,,Unknown,90,2012-10-10 21:55:00
5:15 PM,62.6,53.6,72,30.13,10.0,ENE,5.8,-,N/A,,Unknown,70,2012-10-10 22:15:00
5:35 PM,62.6,53.6,72,30.12,10.0,ENE,4.6,-,N/A,,Unknown,70,2012-10-10 22:35:00
5:55 PM,62.6,53.6,72,30.12,10.0,ENE,4.6,-,N/A,,Unknown,60,2012-10-10 22:55:00
6:35 PM,62.6,53.6,72,30.12,10.0,East,3.5,-,N/A,,Unknown,100,2012-10-10 23:35:00
6:55 PM,62.6,53.6,72,30.12,10.0,SE,3.5,-,N/A,,Unknown,130,2012-10-10 23:55:00
7:15 PM,62.6,53.6,72,30.12,10.0,Calm,Calm,-,N/A,,Unknown,0,2012-10-11 00:15:00
7:35 PM,62.6,53.6,72,30.12,10.0,Calm,Calm,-,N/A,,Unknown,0,2012-10-11 00:35:00
7:55 PM,62.6,53.6,72,30.13,10.0,Calm,Calm,-,N/A,,Unknown,0,2012-10-11 00:55:00
8:15 PM,62.6,53.6,72,30.12,10.0,Calm,Calm,-,N/A,,Unknown,0,2012-10-11 01:15:00
8:35 PM,62.6,53.6,72,30.12,10.0,Calm,Calm,-,N/A,,Unknown,0,2012-10-11 01:35:00
8:55 PM,62.6,53.6,72,30.12,10.0,SE,3.5,-,N/A,,Unknown,130,2012-10-11 01:55:00
9:15 PM,62.6,53.6,72,30.12,10.0,Calm,Calm,-,N/A,,Unknown,0,2012-10-11 02:15:00
9:35 PM,62.6,53.6,72,30.12,10.0,ESE,3.5,-,N/A,,Unknown,120,2012-10-11 02:35:00
9:55 PM,62.6,53.6,72,30.13,10.0,SE,3.5,-,N/A,,Unknown,130,2012-10-11 02:55:00
10:15 PM,62.6,53.6,72,30.13,10.0,SE,3.5,-,N/A,,Unknown,140,2012-10-11 03:15:00
10:35 PM,62.6,53.6,72,30.13,10.0,SE,3.5,-,N/A,,Unknown,140,2012-10-11 03:35:00
10:55 PM,62.6,53.6,72,30.13,10.0,SE,3.5,-,N/A,,Unknown,140,2012-10-11 03:55:00
11:15 PM,62.6,53.6,72,30.13,10.0,SSE,3.5,-,N/A,,Unknown,150,2012-10-11 04:15:00
11:35 PM,62.6,53.6,72,30.13,10.0,SSE,3.5,-,N/A,,Unknown,150,2012-10-11 04:35:00
11:55 PM,62.6,55.4,77,30.12,10.0,Calm,Calm,-,N/A,,Unknown,0,2012-10-11 04:55:00